Cloud_Cover
93 5 1 0 0 0 0 0 0 0 0 0 0 3 5 4 5 5 5 4 0 0 0 0 0 0 0 0 0 0 0 0 0 0 0 0 18 100 100 100 100 100 100
88 80 49 0 0 3 4 1 0 0 4 2 0 5 5 5 3 2 4 5 5 4 5 4 5 1 0 0 0 0 0 0 0 0 1 0 2 8 98 100 100 100 100
5 1 2 0 0 5 0 5 5 5 5 5 5 5 5 5 5 5 5 5 5 5 6 82 69 9 5 5 2 0 0 0 0 0 0 0 0 8 36 82 73 100 100
5 0 0 2 5 5 5 5 5 5 5 5 5 5 5 5 5 5 5 5 5 5 5 5 8 61 99 11 3 3 4 0 0 0 0 0 0 0 21 96 40 100 100
0 0 2 1 3 8 12 48 5 5 5 4 5 5 8 29 5 7 6 30 16 10 5 6 31 36 16 18 62 17 5 5 0 0 2 0 0 0 1 23 89 100 100
100 100 88 98 100 100 72 5 5 5 2 2 5 7 8 12 36 71 73 65 68 75 84 78 88 97 100 67 80 82 79 20 5 4 0 5 0 1 0 1 78 48 94
100 100 100 62 5 5 5 71 35 5 5 42 99 100 100 100 100 100 100 100 100 90 99 96 99 100 100 100 100 100 100 100 100 40 5 0 5 4 4 8 50 99 63
3 0 1 16 43 86 97 55 3 5 5 5 5 5 19 69 13 19 43 55 29 72 88 96 100 100 100 100 100 100 100 100 100 100 90 93 5 5 1 1 0 4 17
3 2 1 0 1 2 0 0 0 0 0 0 0 2 4 3 5 5 32 37 40 78 46 50 94 100 100 100 100 100 100 100 100 100 97 100 99 38 4 0 1 4 5
1 4 5 4 1 0 0 2 4 4 5 4 2 5 5 7 5 54 6 5 5 5 4 2 2 1 3 1 40 100 100 74 100 100 100 78 30 100 95 2 1 1 5
99 100 96 58 8 64 95 100 91 7 6 6 5 8 7 5 5 91 95 48 5 5 2 0 0 8 5 5 5 4 7 100 96 95 97 91 50 93 100 100 40 0 0
99 80 98 100 100 86 20 5 5 3 5 10 58 86 100 100 100 100 100 24 98 36 23 2 2 0 0 0 0 3 17 6 93 100 70 100 99 91 100 97 51 47 0
99 80 98 39 7 19 5 5 5 5 5 8 5 18 19 7 42 88 80 86 54 83 99 5 4 10 4 0 0 0 0 0 10 100 100 100 100 100 100 100 93 13 77
5 5 5 5 2 2 4 6 26 5 5 6 19 84 94 97 100 96 87 100 93 97 95 6 5 36 12 5 4 0 0 0 1 26 100 99 100 100 100 100 100 100 100
5 5 2 0 5 5 5 5 5 5 5 16 5 90 100 96 100 94 97 100 100 91 29 5 5 5 5 5 5 5 1 0 5 10 100 100 100 100 100 100 100 100 100
0 0 0 0 0 5 5 5 5 5 4 3 5 6 10 24 48 89 49 100 100 99 50 5 0 0 0 0 3 5 3 5 1 0 89 100 100 100 100 100 100 100 100
3 5 5 13 5 5 3 5 6 5 5 5 2 5 8 100 92 94 40 49 8 44 5 2 2 0 0 0 0 0 0 1 5 5 6 100 100 100 100 100 100 100 100
5 83 99 33 100 100 100 75 89 20 47 5 19 91 76 51 28 31 8 5 5 5 5 5 5 5 38 6 4 0 0 0 0 0 9 100 100 100 100 100 100 100 100
88 5 5 12 84 74 93 100 100 100 98 5 4 5 5 5 27 5 5 5 6 64 96 94 17 19 69 23 5 2 0 0 5 2 0 100 100 100 100 100 100 100 100
36 6 43 100 98 100 100 100 100 98 5 5 5 5 5 5 5 5 5 5 98 100 100 100 99 100 99 16 5 5 3 5 4 21 5 40 100 100 100 99 92 98 100
5 5 93 100 100 100 100 95 30 7 5 5 5 5 5 5 5 34 29 5 20 74 99 100 87 93 92 77 17 5 5 5 5 6 26 5 95 100 84 100 98 100 98
40 73 100 100 100 100 85 79 51 5 5 5 5 5 5 5 5 21 5 5 37 84 94 99 99 95 83 5 8 5 5 13 56 5 5 7 5 100 100 99 100 100 100
76 44 97 100 100 76 36 21 5 5 5 10 24 5 5 28 5 5 5 5 10 8 58 100 100 100 96 8 6 17 5 18 59 5 12 44 16 7 98 100 79 92 94
80 71 26 62 93 100 81 5 5 5 5 5 5 5 5 21 17 100 100 98 80 96 91 91 100 99 86 100 93 38 16 100 99 81 50 100 52 7 5 32 6 5 5
87 56 94 100 97 38 5 8 6 5 5 5 5 5 83 73 86 100 88 100 100 100 86 74 72 96 91 88 94 100 100 100 94 31 48 95 78 7 9 5 5 5 94
86 100 98 74 6 5 5 5 63 31 72 34 7 5 5 99 100 100 100 100 100 100 100 100 100 87 96 8 5 9 5 84 97 23 85 96 11 83 60 11 12 15 18